Tracking 25405 objects as of 27-Jan-2022
HD Live streaming from Space Station
objects crossing your sky now

ERS 1

Track ERS 1 now!
10-day predictions
ERS 1 is classified as:


NORAD ID: 21574
Int'l Code: 1991-050A
Perigee: 749.4 km
Apogee: 796.1 km
Inclination: 98.7 °
Period: 100.1 minutes
Semi major axis: 7143 km
RCS: 11.0086 m2 (large)
Launch date: July 17, 1991
Source: European Space Agency (ESA)
Launch site: FRENCH GUIANA (FRGUI)
aabbcc
Your satellite tracking list
Your tracking list is empty




NASA's NSSDC Master Catalog

Two Line Element Set (TLE):
1 21574U 91050A   22026.80956451  .00000112  00000-0  51800-4 0  9996
2 21574  98.6795 354.0587 0032662 340.5412  19.4525 14.37852981599642
Source of the keplerian elements: AFSPC